Location: Goll?ig?dem
(16.6773°N, 80.7332°E)
Time: 22:27:15
(UTC+00:00)

ACS3 Solar Sail - Pass Details

Date: 19 May 2025
Orbit: 924 x 1015 km, 97.5° (Epoch: 11 June)

Event Time Altitude Azimuth Distance (km) Brightness Sun altitude
Rises 23:14:00 0° 32° (NNE) 3,563 5.8 -12.0°
Reaches altitude 10° 23:16:54 10° 45° (NE) 2,619 5.3 -11.4°
Maximum altitude 23:21:33 25° 98° (E) 1,795 4.0 -10.4°
Drops below altitude 10° 23:26:12 10° 151° (SSE) 2,633 4.1 -9.4°
Sets 23:29:06 0° 164° (SSE) 3,586 4.7 -8.7°
